Hourly Data Report for September 02, 2017

All times are specified in Local Standard Time (LST). Add 1 hour to adjust for Daylight Saving Time where and when it is observed.

POINT LEPREAU CS
NEW BRUNSWICK

45°04'23.040" N
66°26'57.090" W
6.00 m
8104201
71699
WPE

Download Data

Hourly Data (September 2017)
Hourly Data Report for September 2, 2017
Temp Definition
°C
Dew Point Temp Definition
°C
Rel Hum Definition
%
Wind Dir Definition
10's deg

Wind Spd Definition
km/h
Visibility Definition
km
Stn Press Definition
kPa
Hmdx Definition


Wind Chill Definition


Weather Definition


TIME
00:00 11.4 6.5 72 31 13   101.41     LegendNANA
01:00 11.0 6.6 74 31 9   101.41     LegendNANA
02:00 10.6 6.1 74 31 15   101.41     LegendNANA
03:00 9.8 6.3 79 30 13   101.47     LegendNANA
04:00 10.2 6.6 78 30 10   101.53     LegendNANA
05:00 10.1 6.7 80 30 12   101.57     LegendNANA
06:00 10.0 6.5 79 30 10   101.67     LegendNANA
07:00 10.6 6.8 77 30 11   101.73     LegendNANA
08:00 11.9 7.2 73 30 12   101.80     LegendNANA
09:00 11.8 7.3 74 31 14   101.85     LegendNANA
10:00 13.5 6.8 64 32 16   101.87     LegendNANA
11:00 14.4 7.7 64 31 16   101.88     LegendNANA
12:00 16.0 7.3 56 28 10   101.85     LegendNANA
13:00 17.6 9.9 60 21 12   101.87     LegendNANA
14:00 17.3 11.0 66 21 16   101.85     LegendNANA
15:00 18.5 11.3 63 21 11   101.84     LegendNANA
16:00 15.8 10.5 71 22 17   101.88     LegendNANA
17:00 14.8 10.5 75 23 14   101.90     LegendNANA
18:00 14.2 10.4 78 23 13   101.94     LegendNANA
19:00 13.6 10.1 79 24 13   102.01     LegendNANA
20:00 12.6 10.6 88 29 6   102.11     LegendNANA
21:00 10.8 9.8 93 30 5   102.15     LegendNANA
22:00 9.9 9.3 96 16 2   102.19     LegendNANA
23:00 9.0 8.6 97 1 4   102.21     LegendNANA

Notes on Data Quality.

Legend

  • E = Estimated
  • M = Missing
  • NA = Not Available
  • ‡ = Partner data that is not subject to review by the National Climate Archives
Date modified: